Year,Month,Day,Hour,Minute,Value (Times are PST for temperature in C)
2016,08,18,00,00,16.20
2016,08,18,00,01,16.20
2016,08,18,00,02,16.10
2016,08,18,00,03,16.10
2016,08,18,00,04,16.00
2016,08,18,00,05,16.00
2016,08,18,00,06,15.90
2016,08,18,00,07,15.90
2016,08,18,00,08,15.90
2016,08,18,00,09,15.80
2016,08,18,00,10,15.80
2016,08,18,00,11,15.80
2016,08,18,00,12,15.80
2016,08,18,00,13,15.70
2016,08,18,00,14,15.70
2016,08,18,00,15,15.70
2016,08,18,00,16,15.70
2016,08,18,00,17,15.60
2016,08,18,00,18,15.60
2016,08,18,00,19,15.60
2016,08,18,00,20,15.60
2016,08,18,00,21,15.50
2016,08,18,00,22,15.50
2016,08,18,00,23,15.50
2016,08,18,00,24,15.40
2016,08,18,00,25,15.40
2016,08,18,00,26,15.40
2016,08,18,00,27,15.30
2016,08,18,00,28,15.30
2016,08,18,00,29,15.20
2016,08,18,00,30,15.20
2016,08,18,00,31,15.20
2016,08,18,00,32,15.10
2016,08,18,00,33,15.10
2016,08,18,00,34,15.00
2016,08,18,00,35,15.00
2016,08,18,00,36,15.00
2016,08,18,00,37,14.90
2016,08,18,00,38,14.90
2016,08,18,00,39,14.90
2016,08,18,00,40,14.90
2016,08,18,00,41,14.80
2016,08,18,00,42,14.80
2016,08,18,00,43,14.80
2016,08,18,00,44,14.80
2016,08,18,00,45,14.80
2016,08,18,00,46,14.80
2016,08,18,00,47,14.80
2016,08,18,00,48,14.90
2016,08,18,00,49,14.90
2016,08,18,00,50,14.90
2016,08,18,00,51,14.90
2016,08,18,00,52,14.90
2016,08,18,00,53,14.90
2016,08,18,00,54,14.90
2016,08,18,00,55,15.00
2016,08,18,00,56,15.00
2016,08,18,00,57,15.00
2016,08,18,00,58,15.00
2016,08,18,00,59,15.00
2016,08,18,01,00,15.00
2016,08,18,01,01,15.00
2016,08,18,01,02,15.00
2016,08,18,01,03,15.00
2016,08,18,01,04,15.10
2016,08,18,01,05,15.10
2016,08,18,01,06,15.10
2016,08,18,01,07,15.10
2016,08,18,01,08,15.10
2016,08,18,01,09,15.10
2016,08,18,01,10,15.10
2016,08,18,01,11,15.10
2016,08,18,01,12,15.00
2016,08,18,01,13,15.00
2016,08,18,01,14,15.10
2016,08,18,01,15,15.00
2016,08,18,01,16,15.00
2016,08,18,01,17,15.00
2016,08,18,01,18,15.10
2016,08,18,01,19,15.10
2016,08,18,01,20,15.10
2016,08,18,01,21,15.10
2016,08,18,01,22,15.10
2016,08,18,01,23,15.10
2016,08,18,01,24,15.10
2016,08,18,01,25,15.10
2016,08,18,01,26,15.10
2016,08,18,01,27,15.10
2016,08,18,01,28,15.10
2016,08,18,01,29,15.20
2016,08,18,01,30,15.20
2016,08,18,01,31,15.20
2016,08,18,01,32,15.20
2016,08,18,01,33,15.20
2016,08,18,01,34,15.20
2016,08,18,01,35,15.30
2016,08,18,01,36,15.30
2016,08,18,01,37,15.30
2016,08,18,01,38,15.40
2016,08,18,01,39,15.40
2016,08,18,01,40,15.50
2016,08,18,01,41,15.50
2016,08,18,01,42,15.60
2016,08,18,01,43,15.60
2016,08,18,01,44,15.70
2016,08,18,01,45,15.70
2016,08,18,01,46,15.70
2016,08,18,01,47,15.70
2016,08,18,01,48,15.70
2016,08,18,01,49,15.70
2016,08,18,01,50,15.60
2016,08,18,01,51,15.60
2016,08,18,01,52,15.70
2016,08,18,01,53,15.60
2016,08,18,01,54,15.60
2016,08,18,01,55,15.60
2016,08,18,01,56,15.70
2016,08,18,01,57,15.70
2016,08,18,01,58,15.70
2016,08,18,01,59,15.70
2016,08,18,02,00,15.70
2016,08,18,02,01,15.60
2016,08,18,02,02,15.60
2016,08,18,02,03,15.60
2016,08,18,02,04,15.60
2016,08,18,02,05,15.70
2016,08,18,02,06,15.70
2016,08,18,02,07,15.70
2016,08,18,02,08,15.70
2016,08,18,02,09,15.70
2016,08,18,02,10,15.70
2016,08,18,02,11,15.70
2016,08,18,02,12,15.70
2016,08,18,02,13,15.70
2016,08,18,02,14,15.70
2016,08,18,02,15,15.70
2016,08,18,02,16,15.70
2016,08,18,02,17,15.60
2016,08,18,02,18,15.60
2016,08,18,02,19,15.60
2016,08,18,02,20,15.60
2016,08,18,02,21,15.60
2016,08,18,02,22,15.60
2016,08,18,02,23,15.60
2016,08,18,02,24,15.60
2016,08,18,02,25,15.60
2016,08,18,02,26,15.70
2016,08,18,02,27,15.70
2016,08,18,02,28,15.70
2016,08,18,02,29,15.70
2016,08,18,02,30,15.80
2016,08,18,02,31,15.80
2016,08,18,02,32,15.80
2016,08,18,02,33,15.80
2016,08,18,02,34,15.80
2016,08,18,02,35,15.80
2016,08,18,02,36,15.80
2016,08,18,02,37,15.80
2016,08,18,02,38,15.70
2016,08,18,02,39,15.70
2016,08,18,02,40,15.70
2016,08,18,02,41,15.70
2016,08,18,02,42,15.60
2016,08,18,02,43,15.60
2016,08,18,02,44,15.60
2016,08,18,02,45,15.60
2016,08,18,02,46,15.60
2016,08,18,02,47,15.60
2016,08,18,02,48,15.60
2016,08,18,02,49,15.60
2016,08,18,02,50,15.60
2016,08,18,02,51,15.60
2016,08,18,02,52,15.70
2016,08,18,02,53,15.70
2016,08,18,02,54,15.70
2016,08,18,02,55,15.70
2016,08,18,02,56,15.70
2016,08,18,02,57,15.70
2016,08,18,02,58,15.80
2016,08,18,02,59,15.80
2016,08,18,03,00,15.80
2016,08,18,03,01,15.90
2016,08,18,03,02,15.90
2016,08,18,03,03,16.00
2016,08,18,03,04,16.00
2016,08,18,03,05,16.10
2016,08,18,03,06,16.10
2016,08,18,03,07,16.20
2016,08,18,03,08,16.30
2016,08,18,03,09,16.30
2016,08,18,03,10,16.40
2016,08,18,03,11,16.40
2016,08,18,03,12,16.50
2016,08,18,03,13,16.50
2016,08,18,03,14,16.60
2016,08,18,03,15,16.60
2016,08,18,03,16,16.70
2016,08,18,03,17,16.70
2016,08,18,03,18,16.80
2016,08,18,03,19,16.80
2016,08,18,03,20,16.80
2016,08,18,03,21,16.90
2016,08,18,03,22,16.90
2016,08,18,03,23,16.90
2016,08,18,03,24,16.90
2016,08,18,03,25,16.90
2016,08,18,03,26,17.00
2016,08,18,03,27,17.00
2016,08,18,03,28,17.00
2016,08,18,03,29,16.90
2016,08,18,03,30,16.90
2016,08,18,03,31,16.90
2016,08,18,03,32,16.90
2016,08,18,03,33,16.80
2016,08,18,03,34,16.80
2016,08,18,03,35,16.80
2016,08,18,03,36,16.70
2016,08,18,03,37,16.70
2016,08,18,03,38,16.70
2016,08,18,03,39,16.70
2016,08,18,03,40,16.60
2016,08,18,03,41,16.60
2016,08,18,03,42,16.70
2016,08,18,03,43,16.70
2016,08,18,03,44,16.70
2016,08,18,03,45,16.70
2016,08,18,03,46,16.70
2016,08,18,03,47,16.70
2016,08,18,03,48,16.70
2016,08,18,03,49,16.70
2016,08,18,03,50,16.70
2016,08,18,03,51,16.70
2016,08,18,03,52,16.70
2016,08,18,03,53,16.70
2016,08,18,03,54,16.70
2016,08,18,03,55,16.60
2016,08,18,03,56,16.60
2016,08,18,03,57,16.60
2016,08,18,03,58,16.60
2016,08,18,03,59,16.60
2016,08,18,04,00,16.60
2016,08,18,04,01,16.60
2016,08,18,04,02,16.60
2016,08,18,04,03,16.60
2016,08,18,04,04,16.60
2016,08,18,04,05,16.60
2016,08,18,04,06,16.60
2016,08,18,04,07,16.60
2016,08,18,04,08,16.60
2016,08,18,04,09,16.60
2016,08,18,04,10,16.60
2016,08,18,04,11,16.60
2016,08,18,04,12,16.60
2016,08,18,04,13,16.60
2016,08,18,04,14,16.60
2016,08,18,04,15,16.60
2016,08,18,04,16,16.60
2016,08,18,04,17,16.60
2016,08,18,04,18,16.60
2016,08,18,04,19,16.60
2016,08,18,04,20,16.60
2016,08,18,04,21,16.70
2016,08,18,04,22,16.70
2016,08,18,04,23,16.80
2016,08,18,04,24,16.80
2016,08,18,04,25,16.80
2016,08,18,04,26,16.80
2016,08,18,04,27,16.80
2016,08,18,04,28,16.80
2016,08,18,04,29,16.80
2016,08,18,04,30,16.80
2016,08,18,04,31,16.90
2016,08,18,04,32,16.90
2016,08,18,04,33,16.90
2016,08,18,04,34,16.90
2016,08,18,04,35,17.00
2016,08,18,04,36,17.00
2016,08,18,04,37,17.00
2016,08,18,04,38,17.00
2016,08,18,04,39,17.10
2016,08,18,04,40,17.10
2016,08,18,04,41,17.10
2016,08,18,04,42,17.20
2016,08,18,04,43,17.20
2016,08,18,04,44,17.20
2016,08,18,04,45,17.20
2016,08,18,04,46,17.20
2016,08,18,04,47,17.20
2016,08,18,04,48,17.20
2016,08,18,04,49,17.20
2016,08,18,04,50,17.20
2016,08,18,04,51,17.20
2016,08,18,04,52,17.20
2016,08,18,04,53,17.20
2016,08,18,04,54,17.20
2016,08,18,04,55,17.20
2016,08,18,04,56,17.10
2016,08,18,04,57,17.10
2016,08,18,04,58,17.10
2016,08,18,04,59,17.10
2016,08,18,05,00,17.10
2016,08,18,05,01,17.10
2016,08,18,05,02,17.10
2016,08,18,05,03,17.00
2016,08,18,05,04,17.00
2016,08,18,05,05,17.00
2016,08,18,05,06,17.00
2016,08,18,05,07,16.90
2016,08,18,05,08,16.90
2016,08,18,05,09,16.90
2016,08,18,05,10,16.80
2016,08,18,05,11,16.80
2016,08,18,05,12,16.80
2016,08,18,05,13,16.80
2016,08,18,05,14,16.80
2016,08,18,05,15,16.80
2016,08,18,05,16,16.80
2016,08,18,05,17,16.80
2016,08,18,05,18,16.70
2016,08,18,05,19,16.70
2016,08,18,05,20,16.70
2016,08,18,05,21,16.70
2016,08,18,05,22,16.70
2016,08,18,05,23,16.70
2016,08,18,05,24,16.70
2016,08,18,05,25,16.70
2016,08,18,05,26,16.70
2016,08,18,05,27,16.70
2016,08,18,05,28,16.80
2016,08,18,05,29,16.80
2016,08,18,05,30,16.80
2016,08,18,05,31,16.80
2016,08,18,05,32,16.80
2016,08,18,05,33,16.80
2016,08,18,05,34,16.80
2016,08,18,05,35,16.80
2016,08,18,05,36,16.80
2016,08,18,05,37,16.70
2016,08,18,05,38,16.70
2016,08,18,05,39,16.70
2016,08,18,05,40,16.70
2016,08,18,05,41,16.70
2016,08,18,05,42,16.70
2016,08,18,05,43,16.70
2016,08,18,05,44,16.70
2016,08,18,05,45,16.70
2016,08,18,05,46,16.70
2016,08,18,05,47,16.70
2016,08,18,05,48,16.80
2016,08,18,05,49,16.80
2016,08,18,05,50,16.80
2016,08,18,05,51,16.80
2016,08,18,05,52,16.80
2016,08,18,05,53,16.80
2016,08,18,05,54,16.80
2016,08,18,05,55,16.80
2016,08,18,05,56,16.80
2016,08,18,05,57,16.80
2016,08,18,05,58,16.80
2016,08,18,05,59,16.80
2016,08,18,06,00,16.80
2016,08,18,06,01,16.80
2016,08,18,06,02,16.80
2016,08,18,06,03,16.80
2016,08,18,06,04,16.90
2016,08,18,06,05,16.90
2016,08,18,06,06,16.90
2016,08,18,06,07,16.90
2016,08,18,06,08,16.90
2016,08,18,06,09,17.00
2016,08,18,06,10,17.00
2016,08,18,06,11,17.00
2016,08,18,06,12,17.00
2016,08,18,06,13,16.90
2016,08,18,06,14,16.90
2016,08,18,06,15,16.90
2016,08,18,06,16,16.80
2016,08,18,06,17,16.70
2016,08,18,06,18,16.60
2016,08,18,06,19,16.60
2016,08,18,06,20,16.50
2016,08,18,06,21,16.40
2016,08,18,06,22,16.40
2016,08,18,06,23,16.40
2016,08,18,06,24,16.40
2016,08,18,06,25,16.40
2016,08,18,06,26,16.40
2016,08,18,06,27,16.40
2016,08,18,06,28,16.40
2016,08,18,06,29,16.40
2016,08,18,06,30,16.40
2016,08,18,06,31,16.40
2016,08,18,06,32,16.40
2016,08,18,06,33,16.40
2016,08,18,06,34,16.40
2016,08,18,06,35,16.40
2016,08,18,06,36,16.40
2016,08,18,06,37,16.40
2016,08,18,06,38,16.30
2016,08,18,06,39,16.30
2016,08,18,06,40,16.30
2016,08,18,06,41,16.40
2016,08,18,06,42,16.40
2016,08,18,06,43,16.40
2016,08,18,06,44,16.40
2016,08,18,06,45,16.40
2016,08,18,06,46,16.40
2016,08,18,06,47,16.40
2016,08,18,06,48,16.40
2016,08,18,06,49,16.40
2016,08,18,06,50,16.40
2016,08,18,06,51,16.30
2016,08,18,06,52,16.30
2016,08,18,06,53,16.30
2016,08,18,06,54,16.30
2016,08,18,06,55,16.30
2016,08,18,06,56,16.30
2016,08,18,06,57,16.30
2016,08,18,06,58,16.30
2016,08,18,06,59,16.40
2016,08,18,07,00,16.40
2016,08,18,07,01,16.40
2016,08,18,07,02,16.40
2016,08,18,07,03,16.40
2016,08,18,07,04,16.40
2016,08,18,07,05,16.50
2016,08,18,07,06,16.50
2016,08,18,07,07,16.50
2016,08,18,07,08,16.50
2016,08,18,07,09,16.50
2016,08,18,07,10,16.50
2016,08,18,07,11,16.50
2016,08,18,07,12,16.50
2016,08,18,07,13,16.60
2016,08,18,07,14,16.60
2016,08,18,07,15,16.60
2016,08,18,07,16,16.60
2016,08,18,07,17,16.60
2016,08,18,07,18,16.60
2016,08,18,07,19,16.60
2016,08,18,07,20,16.60
2016,08,18,07,21,16.70
2016,08,18,07,22,16.70
2016,08,18,07,23,16.70
2016,08,18,07,24,16.70
2016,08,18,07,25,16.70
2016,08,18,07,26,16.70
2016,08,18,07,27,16.80
2016,08,18,07,28,16.80
2016,08,18,07,29,16.80
2016,08,18,07,30,16.80
2016,08,18,07,31,16.90
2016,08,18,07,32,16.90
2016,08,18,07,33,16.90
2016,08,18,07,34,16.90
2016,08,18,07,35,17.00
2016,08,18,07,36,17.00
2016,08,18,07,37,17.00
2016,08,18,07,38,17.10
2016,08,18,07,39,17.10
2016,08,18,07,40,17.20
2016,08,18,07,41,17.20
2016,08,18,07,42,17.30
2016,08,18,07,43,17.30
2016,08,18,07,44,17.30
2016,08,18,07,45,17.40
2016,08,18,07,46,17.40
2016,08,18,07,47,17.50
2016,08,18,07,48,17.60
2016,08,18,07,49,17.60
2016,08,18,07,50,17.70
2016,08,18,07,51,17.70
2016,08,18,07,52,17.80
2016,08,18,07,53,17.80
2016,08,18,07,54,17.90
2016,08,18,07,55,18.00
2016,08,18,07,56,18.00
2016,08,18,07,57,18.10
2016,08,18,07,58,18.20
2016,08,18,07,59,18.30
2016,08,18,08,00,18.40
2016,08,18,08,01,18.50
2016,08,18,08,02,18.50
2016,08,18,08,03,18.60
2016,08,18,08,04,18.70
2016,08,18,08,05,18.80
2016,08,18,08,06,18.90
2016,08,18,08,07,19.00
2016,08,18,08,08,19.10
2016,08,18,08,09,19.20
2016,08,18,08,10,19.30
2016,08,18,08,11,19.40
2016,08,18,08,12,19.50
2016,08,18,08,13,19.50
2016,08,18,08,14,19.60
2016,08,18,08,15,19.70
2016,08,18,08,16,19.70
2016,08,18,08,17,19.70
2016,08,18,08,18,19.80
2016,08,18,08,19,19.80
2016,08,18,08,20,19.80
2016,08,18,08,21,19.80
2016,08,18,08,22,19.80
2016,08,18,08,23,19.80
2016,08,18,08,24,19.90
2016,08,18,08,25,19.90
2016,08,18,08,26,19.90
2016,08,18,08,27,19.90
2016,08,18,08,28,19.90
2016,08,18,08,29,19.90
2016,08,18,08,30,20.00
2016,08,18,08,31,20.00
2016,08,18,08,32,20.00
2016,08,18,08,33,20.00
2016,08,18,08,34,20.10
2016,08,18,08,35,20.10
2016,08,18,08,36,20.10
2016,08,18,08,37,20.10
2016,08,18,08,38,20.20
2016,08,18,08,39,20.20
2016,08,18,08,40,20.20
2016,08,18,08,41,20.30
2016,08,18,08,42,20.30
2016,08,18,08,43,20.30
2016,08,18,08,44,20.40
2016,08,18,08,45,20.40
2016,08,18,08,46,20.40
2016,08,18,08,47,20.50
2016,08,18,08,48,20.50
2016,08,18,08,49,20.60
2016,08,18,08,50,20.60
2016,08,18,08,51,20.60
2016,08,18,08,52,20.70
2016,08,18,08,53,20.70
2016,08,18,08,54,20.70
2016,08,18,08,55,20.80
2016,08,18,08,56,20.80
2016,08,18,08,57,20.90
2016,08,18,08,58,20.90
2016,08,18,08,59,21.00
2016,08,18,09,00,21.00
2016,08,18,09,01,21.10
2016,08,18,09,02,21.10
2016,08,18,09,03,21.10
2016,08,18,09,04,21.20
2016,08,18,09,05,21.20
2016,08,18,09,06,21.30
2016,08,18,09,07,21.30
2016,08,18,09,08,21.30
2016,08,18,09,09,21.40
2016,08,18,09,10,21.40
2016,08,18,09,11,21.40
2016,08,18,09,12,21.50
2016,08,18,09,13,21.50
2016,08,18,09,14,21.60
2016,08,18,09,15,21.60
2016,08,18,09,16,21.60
2016,08,18,09,17,21.70
2016,08,18,09,18,21.70
2016,08,18,09,19,21.80
2016,08,18,09,20,21.80
2016,08,18,09,21,21.80
2016,08,18,09,22,21.90
2016,08,18,09,23,21.90
2016,08,18,09,24,22.00
2016,08,18,09,25,22.10
2016,08,18,09,26,22.10
2016,08,18,09,27,22.10
2016,08,18,09,28,22.20
2016,08,18,09,29,22.20
2016,08,18,09,30,22.30
2016,08,18,09,31,22.30
2016,08,18,09,32,22.30
2016,08,18,09,33,22.30
2016,08,18,09,34,22.40
2016,08,18,09,35,22.40
2016,08,18,09,36,22.40
2016,08,18,09,37,22.40
2016,08,18,09,38,22.40
2016,08,18,09,39,22.50
2016,08,18,09,40,22.50
2016,08,18,09,41,22.60
2016,08,18,09,42,22.60
2016,08,18,09,43,22.60
2016,08,18,09,44,22.70
2016,08,18,09,45,22.70
2016,08,18,09,46,22.70
2016,08,18,09,47,22.70
2016,08,18,09,48,22.80
2016,08,18,09,49,22.80
2016,08,18,09,50,22.90
2016,08,18,09,51,22.90
2016,08,18,09,52,23.00
2016,08,18,09,53,23.00
2016,08,18,09,54,23.10
2016,08,18,09,55,23.10
2016,08,18,09,56,23.20
2016,08,18,09,57,23.30
2016,08,18,09,58,23.30
2016,08,18,09,59,23.40
2016,08,18,10,00,23.40
2016,08,18,10,01,23.50
2016,08,18,10,02,23.60
2016,08,18,10,03,23.60
2016,08,18,10,04,23.70
2016,08,18,10,05,23.70
2016,08,18,10,06,23.80
2016,08,18,10,07,23.80
2016,08,18,10,08,23.80
2016,08,18,10,09,23.80
2016,08,18,10,10,23.90
2016,08,18,10,11,23.90
2016,08,18,10,12,24.00
2016,08,18,10,13,24.00
2016,08,18,10,14,24.10
2016,08,18,10,15,24.10
2016,08,18,10,16,24.20
2016,08,18,10,17,24.20
2016,08,18,10,18,24.30
2016,08,18,10,19,24.30
2016,08,18,10,20,24.40
2016,08,18,10,21,24.40
2016,08,18,10,22,24.50
2016,08,18,10,23,24.60
2016,08,18,10,24,24.60
2016,08,18,10,25,24.70
2016,08,18,10,26,24.70
2016,08,18,10,27,24.80
2016,08,18,10,28,24.90
2016,08,18,10,29,24.90
2016,08,18,10,30,25.00
2016,08,18,10,31,25.00
2016,08,18,10,32,25.10
2016,08,18,10,33,25.20
2016,08,18,10,34,25.20
2016,08,18,10,35,25.30
2016,08,18,10,36,25.30
2016,08,18,10,37,25.30
2016,08,18,10,38,25.30
2016,08,18,10,39,25.40
2016,08,18,10,40,25.40
2016,08,18,10,41,25.50
2016,08,18,10,42,25.50
2016,08,18,10,43,25.50
2016,08,18,10,44,25.60
2016,08,18,10,45,25.60
2016,08,18,10,46,25.60
2016,08,18,10,47,25.60
2016,08,18,10,48,25.70
2016,08,18,10,49,25.70
2016,08,18,10,50,25.70
2016,08,18,10,51,25.80
2016,08,18,10,52,25.80
2016,08,18,10,53,25.80
2016,08,18,10,54,25.90
2016,08,18,10,55,25.90
2016,08,18,10,56,26.00
2016,08,18,10,57,26.00
2016,08,18,10,58,26.10
2016,08,18,10,59,26.10
2016,08,18,11,00,26.20
2016,08,18,11,01,26.20
2016,08,18,11,02,26.30
2016,08,18,11,03,26.40
2016,08,18,11,04,26.40
2016,08,18,11,05,26.50
2016,08,18,11,06,26.60
2016,08,18,11,07,26.60
2016,08,18,11,08,26.70
2016,08,18,11,09,26.70
2016,08,18,11,10,26.70
2016,08,18,11,11,26.70
2016,08,18,11,12,26.80
2016,08,18,11,13,26.80
2016,08,18,11,14,26.80
2016,08,18,11,15,26.80
2016,08,18,11,16,26.80
2016,08,18,11,17,26.90
2016,08,18,11,18,26.90
2016,08,18,11,19,26.90
2016,08,18,11,20,26.90
2016,08,18,11,21,26.90
2016,08,18,11,22,26.90
2016,08,18,11,23,27.00
2016,08,18,11,24,27.00
2016,08,18,11,25,27.10
2016,08,18,11,26,27.10
2016,08,18,11,27,27.20
2016,08,18,11,28,27.20
2016,08,18,11,29,27.20
2016,08,18,11,30,27.30
2016,08,18,11,31,27.40
2016,08,18,11,32,27.40
2016,08,18,11,33,27.50
2016,08,18,11,34,27.50
2016,08,18,11,35,27.60
2016,08,18,11,36,27.60
2016,08,18,11,37,27.70
2016,08,18,11,38,27.70
2016,08,18,11,39,27.70
2016,08,18,11,40,27.70
2016,08,18,11,41,27.70
2016,08,18,11,42,27.80
2016,08,18,11,43,27.80
2016,08,18,11,44,27.90
2016,08,18,11,45,27.90
2016,08,18,11,46,28.00
2016,08,18,11,47,28.00
2016,08,18,11,48,28.10
2016,08,18,11,49,28.10
2016,08,18,11,50,28.10
2016,08,18,11,51,28.10
2016,08,18,11,52,28.20
2016,08,18,11,53,28.20
2016,08,18,11,54,28.30
2016,08,18,11,55,28.30
2016,08,18,11,56,28.30
2016,08,18,11,57,28.30
2016,08,18,11,58,28.40
2016,08,18,11,59,28.40
2016,08,18,12,00,28.40
2016,08,18,12,01,28.40
2016,08,18,12,02,28.50
2016,08,18,12,03,28.50
2016,08,18,12,04,28.50
2016,08,18,12,05,28.60
2016,08,18,12,06,28.50
2016,08,18,12,07,28.50
2016,08,18,12,08,28.50
2016,08,18,12,09,28.40
2016,08,18,12,10,28.40
2016,08,18,12,11,28.40
2016,08,18,12,12,28.50
2016,08,18,12,13,28.50
2016,08,18,12,14,28.50
2016,08,18,12,15,28.50
2016,08,18,12,16,28.50
2016,08,18,12,17,28.60
2016,08,18,12,18,28.60
2016,08,18,12,19,28.60
2016,08,18,12,20,28.70
2016,08,18,12,21,28.70
2016,08,18,12,22,28.70
2016,08,18,12,23,28.80
2016,08,18,12,24,28.90
2016,08,18,12,25,29.00
2016,08,18,12,26,29.10
2016,08,18,12,27,29.20
2016,08,18,12,28,29.30
2016,08,18,12,29,29.40
2016,08,18,12,30,29.50
2016,08,18,12,31,29.50
2016,08,18,12,32,29.60
2016,08,18,12,33,29.60
2016,08,18,12,34,29.60
2016,08,18,12,35,29.60
2016,08,18,12,36,29.60
2016,08,18,12,37,29.70
2016,08,18,12,38,29.70
2016,08,18,12,39,29.70
2016,08,18,12,40,29.70
2016,08,18,12,41,29.60
2016,08,18,12,42,29.70
2016,08,18,12,43,29.70
2016,08,18,12,44,29.70
2016,08,18,12,45,29.80
2016,08,18,12,46,29.80
2016,08,18,12,47,29.80
2016,08,18,12,48,29.80
2016,08,18,12,49,29.80
2016,08,18,12,50,29.80
2016,08,18,12,51,29.80
2016,08,18,12,52,29.80
2016,08,18,12,53,29.80
2016,08,18,12,54,29.90
2016,08,18,12,55,29.90
2016,08,18,12,56,30.00
2016,08,18,12,57,30.00
2016,08,18,12,58,30.00
2016,08,18,12,59,30.00
2016,08,18,13,00,30.00
2016,08,18,13,01,30.10
2016,08,18,13,02,30.10
2016,08,18,13,03,30.20
2016,08,18,13,04,30.30
2016,08,18,13,05,30.30
2016,08,18,13,06,30.30
2016,08,18,13,07,30.40
2016,08,18,13,08,30.40
2016,08,18,13,09,30.40
2016,08,18,13,10,30.50
2016,08,18,13,11,30.60
2016,08,18,13,12,30.60
2016,08,18,13,13,30.70
2016,08,18,13,14,30.80
2016,08,18,13,15,30.90
2016,08,18,13,16,30.90
2016,08,18,13,17,31.00
2016,08,18,13,18,31.00
2016,08,18,13,19,31.00
2016,08,18,13,20,31.00
2016,08,18,13,21,30.90
2016,08,18,13,22,30.90
2016,08,18,13,23,30.80
2016,08,18,13,24,30.80
2016,08,18,13,25,30.80
2016,08,18,13,26,30.80
2016,08,18,13,27,30.80
2016,08,18,13,28,30.80
2016,08,18,13,29,30.80
2016,08,18,13,30,30.80
2016,08,18,13,31,30.70
2016,08,18,13,32,30.70
2016,08,18,13,33,30.70
2016,08,18,13,34,30.70
2016,08,18,13,35,30.70
2016,08,18,13,36,30.60
2016,08,18,13,37,30.60
2016,08,18,13,38,30.50
2016,08,18,13,39,30.50
2016,08,18,13,40,30.50
2016,08,18,13,41,30.50
2016,08,18,13,42,30.60
2016,08,18,13,43,30.60
2016,08,18,13,44,30.60
2016,08,18,13,45,30.60
2016,08,18,13,46,30.70
2016,08,18,13,47,30.70
2016,08,18,13,48,30.80
2016,08,18,13,49,30.90
2016,08,18,13,50,30.90
2016,08,18,13,51,31.00
2016,08,18,13,52,31.10
2016,08,18,13,53,31.10
2016,08,18,13,54,31.10
2016,08,18,13,55,31.20
2016,08,18,13,56,31.20
2016,08,18,13,57,31.30
2016,08,18,13,58,31.30
2016,08,18,13,59,31.30
2016,08,18,14,00,31.30
2016,08,18,14,01,31.30
2016,08,18,14,02,31.40
2016,08,18,14,03,31.40
2016,08,18,14,04,31.40
2016,08,18,14,05,31.40
2016,08,18,14,06,31.40
2016,08,18,14,07,31.30
2016,08,18,14,08,31.30
2016,08,18,14,09,31.30
2016,08,18,14,10,31.20
2016,08,18,14,11,31.20
2016,08,18,14,12,31.30
2016,08,18,14,13,31.30
2016,08,18,14,14,31.40
2016,08,18,14,15,31.50
2016,08,18,14,16,31.50
2016,08,18,14,17,31.60
2016,08,18,14,18,31.60
2016,08,18,14,19,31.60
2016,08,18,14,20,31.60
2016,08,18,14,21,31.60
2016,08,18,14,22,31.60
2016,08,18,14,23,31.60
2016,08,18,14,24,31.60
2016,08,18,14,25,31.60
2016,08,18,14,26,31.60
2016,08,18,14,27,31.60
2016,08,18,14,28,31.60
2016,08,18,14,29,31.60
2016,08,18,14,30,31.60
2016,08,18,14,31,31.60
2016,08,18,14,32,31.60
2016,08,18,14,33,31.60
2016,08,18,14,34,31.60
2016,08,18,14,35,31.60
2016,08,18,14,36,31.60
2016,08,18,14,37,31.70
2016,08,18,14,38,31.70
2016,08,18,14,39,31.60
2016,08,18,14,40,31.50
2016,08,18,14,41,31.50
2016,08,18,14,42,31.50
2016,08,18,14,43,31.50
2016,08,18,14,44,31.50
2016,08,18,14,45,31.50
2016,08,18,14,46,31.50
2016,08,18,14,47,31.50
2016,08,18,14,48,31.60
2016,08,18,14,49,31.60
2016,08,18,14,50,31.60
2016,08,18,14,51,31.60
2016,08,18,14,52,31.50
2016,08,18,14,53,31.50
2016,08,18,14,54,31.40
2016,08,18,14,55,31.40
2016,08,18,14,56,31.40
2016,08,18,14,57,31.50
2016,08,18,14,58,31.50
2016,08,18,14,59,31.50
2016,08,18,15,00,31.60
2016,08,18,15,01,31.60
2016,08,18,15,02,31.60
2016,08,18,15,03,31.60
2016,08,18,15,04,31.60
2016,08,18,15,05,31.60
2016,08,18,15,06,31.70
2016,08,18,15,07,31.70
2016,08,18,15,08,31.70
2016,08,18,15,09,31.70
2016,08,18,15,10,31.70
2016,08,18,15,11,31.70
2016,08,18,15,12,31.70
2016,08,18,15,13,31.70
2016,08,18,15,14,31.70
2016,08,18,15,15,31.70
2016,08,18,15,16,31.70
2016,08,18,15,17,31.70
2016,08,18,15,18,31.70
2016,08,18,15,19,31.80
2016,08,18,15,20,31.80
2016,08,18,15,21,31.80
2016,08,18,15,22,31.80
2016,08,18,15,23,31.80
2016,08,18,15,24,31.80
2016,08,18,15,25,31.70
2016,08,18,15,26,31.70
2016,08,18,15,27,31.70
2016,08,18,15,28,31.70
2016,08,18,15,29,31.70
2016,08,18,15,30,31.70
2016,08,18,15,31,31.70
2016,08,18,15,32,31.80
2016,08,18,15,33,31.80
2016,08,18,15,34,31.80
2016,08,18,15,35,31.80
2016,08,18,15,36,31.80
2016,08,18,15,37,31.70
2016,08,18,15,38,31.70
2016,08,18,15,39,31.60
2016,08,18,15,40,31.70
2016,08,18,15,41,31.70
2016,08,18,15,42,31.70
2016,08,18,15,43,31.70
2016,08,18,15,44,31.80
2016,08,18,15,45,31.80
2016,08,18,15,46,31.80
2016,08,18,15,47,31.80
2016,08,18,15,48,31.80
2016,08,18,15,49,31.80
2016,08,18,15,50,31.70
2016,08,18,15,51,31.80
2016,08,18,15,52,31.80
2016,08,18,15,53,31.90
2016,08,18,15,54,31.90
2016,08,18,15,55,32.00
2016,08,18,15,56,32.10
2016,08,18,15,57,32.10
2016,08,18,15,58,32.20
2016,08,18,15,59,32.20
2016,08,18,16,00,32.20
2016,08,18,16,01,32.20
2016,08,18,16,02,32.20
2016,08,18,16,03,32.20
2016,08,18,16,04,32.20
2016,08,18,16,05,32.30
2016,08,18,16,06,32.40
2016,08,18,16,07,32.50
2016,08,18,16,08,32.50
2016,08,18,16,09,32.60
2016,08,18,16,10,32.60
2016,08,18,16,11,32.60
2016,08,18,16,12,32.70
2016,08,18,16,13,32.70
2016,08,18,16,14,32.70
2016,08,18,16,15,32.70
2016,08,18,16,16,32.70
2016,08,18,16,17,32.70
2016,08,18,16,18,32.80
2016,08,18,16,19,32.90
2016,08,18,16,20,32.90
2016,08,18,16,21,33.00
2016,08,18,16,22,33.10
2016,08,18,16,23,33.10
2016,08,18,16,24,33.10
2016,08,18,16,25,33.10
2016,08,18,16,26,33.20
2016,08,18,16,27,33.20
2016,08,18,16,28,33.30
2016,08,18,16,29,33.40
2016,08,18,16,30,33.40
2016,08,18,16,31,33.40
2016,08,18,16,32,33.40
2016,08,18,16,33,33.40
2016,08,18,16,34,33.50
2016,08,18,16,35,33.50
2016,08,18,16,36,33.60
2016,08,18,16,37,33.60
2016,08,18,16,38,33.60
2016,08,18,16,39,33.60
2016,08,18,16,40,33.60
2016,08,18,16,41,33.60
2016,08,18,16,42,33.50
2016,08,18,16,43,33.50
2016,08,18,16,44,33.50
2016,08,18,16,45,33.50
2016,08,18,16,46,33.50
2016,08,18,16,47,33.40
2016,08,18,16,48,33.30
2016,08,18,16,49,33.30
2016,08,18,16,50,33.30
2016,08,18,16,51,33.30
2016,08,18,16,52,33.30
2016,08,18,16,53,33.30
2016,08,18,16,54,33.30
2016,08,18,16,55,33.30
2016,08,18,16,56,33.30
2016,08,18,16,57,33.30
2016,08,18,16,58,33.30
2016,08,18,16,59,33.30
2016,08,18,17,00,33.30
2016,08,18,17,01,33.30
2016,08,18,17,02,33.20
2016,08,18,17,03,33.10
2016,08,18,17,04,33.10
2016,08,18,17,05,33.00
2016,08,18,17,06,33.00
2016,08,18,17,07,32.90
2016,08,18,17,08,32.90
2016,08,18,17,09,32.80
2016,08,18,17,10,32.80
2016,08,18,17,11,32.80
2016,08,18,17,12,32.80
2016,08,18,17,13,32.80
2016,08,18,17,14,32.80
2016,08,18,17,15,32.90
2016,08,18,17,16,32.90
2016,08,18,17,17,32.90
2016,08,18,17,18,32.90
2016,08,18,17,19,32.90